[[{"header":{"parameterUnit":"m.s-1","parameterCategory":2,"la1":30.2991,"la2":30.254,"lo1":-89.0895,"lo2":-89.0444,"dy":0.0017,"dx":0.0017,"nx":28,"ny":28,"refTime":"2025-02-09T09:00:00:Z","depth":"0","parameterNumber":2,"parameterNumberName":"U-component_of_CURRENTS"},"data":[0,0,0,0,0,0,0,0,0,0,0,0,0,0,0,0,0,0,0,0,0,0,0,0,0,0,0,0,0,0,0,0,0,0,0,0,0,0,0,0,0,0,0,0,0,0,0,0,0,0,0,0,0,0,0,0,0,0,0.2343,0.2343,0,0.2381,0.2381,0.2381,0.2375,0.2374,0.2374,0.2373,0.2386,0.2387,0.2387,0,0,0,0,0,0,0,0,0,0,0,0,0,0.2266,0.2267,0.2343,0.2343,0.2344,0.2381,0.2381,0.2381,0.2375,0.2374,0.2374,0.2373,0.2386,0.2387,0.2387,0,0,0,0,0,0,0,0,0,0,0,0,0,0.2298,0.2267,0.2342,0.2347,0.2348,0.2381,0.2381,0.2382,0.2375,0.2374,0.2373,0.2373,0.2385,0.2386,0.2388,0.2407,0,0,0.2391,0.2391,0,0,0,0,0,0,0,0,0.2297,0.2301,0.2346,0.2347,0.2348,0.2375,0.2359,0.239,0.2375,0.2362,0.2373,0.2373,0.2382,0.2383,0.2388,0.2408,0.2408,0.2391,0.2392,0.2392,0.2392,0,0,0,0,0,0,0,0.2294,0.2299,0.2355,0.2347,0.2348,0.2348,0.2352,0.2365,0.2372,0.2363,0.2363,0.2372,0.2382,0.2387,0.2389,0.2408,0.2391,0.2392,0.2393,0.2393,0.2483,0.2485,0,0,0,0,0,0,0.2296,0.2297,0.2354,0.2356,0.2323,0.235,0.2354,0.2365,0.2373,0.2374,0.2373,0.2372,0.2386,0.2387,0.2389,0.2445,0.2392,0.2393,0.2394,0.2481,0.2483,0.2485,0,0,0,0,0,0,0.2294,0.2301,0.2352,0.233,0.2337,0.2353,0.2364,0.2366,0.2375,0.2381,0.2381,0.2381,0.2385,0.2388,0.2412,0.2444,0.2394,0.2395,0.2479,0.2482,0.2484,0.2537,0,0,0,0,0,0,0.2292,0.23,0.2308,0.233,0.2338,0.2382,0.2365,0.2367,0.2383,0.2382,0.2388,0.2389,0.2385,0.241,0.2413,0.2445,0.2395,0.2477,0.248,0.2483,0.2533,0.2541,0.2548,0,0,0,0,0,0.2289,0.2303,0.2308,0.2315,0.2348,0.2383,0.2387,0.2394,0.2384,0.2397,0.2402,0.2389,0.2433,0.2413,0.2415,0.2448,0.2475,0.2479,0.2483,0.2529,0.2539,0.2547,0,0,0,0,0,0,0.2271,0.2305,0.231,0.2333,0.2361,0.2383,0.2396,0.24,0.2414,0.241,0.2407,0.2408,0.2445,0.2441,0.2418,0.2486,0.2454,0.2459,0.2489,0.2498,0.2505,0.2514,0.2396,0,0,0,0,0,0.2272,0.2293,0.2326,0.2345,0.236,0.2379,0.2392,0.2401,0.2417,0.2422,0.2427,0.2439,0.2464,0.2474,0.2491,0.2523,0.2546,0.2549,0.2556,0.2563,0.2574,0.2636,0.2651,0.2498,0.2498,0.2498,0,0,0.2268,0.2293,0.2302,0.2343,0.2362,0.2393,0.2385,0.2413,0.244,0.2422,0.2453,0.2464,0.248,0.252,0.2536,0.2518,0.2621,0.2568,0.2573,0.258,0.2642,0.2657,0.267,0.2501,0.25,0.25,0,0,0.2277,0.2296,0.2318,0.2347,0.2386,0.2404,0.2415,0.2445,0.2459,0.2493,0.2495,0.2527,0.255,0.2578,0.2593,0.2653,0.266,0.2657,0.27,0.2761,0.2774,0.2786,0.2846,0.2863,0.2659,0.2659,0.2659,0,0.227,0.2305,0.233,0.2363,0.2389,0.2412,0.2443,0.2469,0.2502,0.2528,0.2509,0.2578,0.2584,0.2653,0.2673,0.2671,0.2704,0.2662,0.2771,0.2783,0.2794,0.2853,0.2871,0.2662,0.2661,0.2661,0.2661,0,0.2297,0.2328,0.2346,0.2395,0.2428,0.246,0.2503,0.2535,0.255,0.2579,0.2644,0.266,0.2703,0.2714,0.2709,0.2797,0.2796,0.2774,0.2747,0.2813,0.2871,0.2888,0.2666,0.2665,0.2664,0.2663,0,0,0.2267,0.2348,0.2353,0.2385,0.2448,0.2477,0.2535,0.2599,0.2642,0.2677,0.2741,0.2787,0.2799,0.2818,0.2825,0.2873,0.2978,0.2857,0.2859,0.2915,0.3123,0.3106,0.3123,0.2974,0.2977,0.298,0.3136,0,0.2279,0.234,0.2382,0.2442,0.2476,0.2528,0.2582,0.2644,0.2691,0.2759,0.2805,0.2862,0.2839,0.2865,0.2915,0.2964,0.3025,0.2938,0.3053,0.3057,0.3031,0.3143,0.3069,0.3201,0.3153,0.3156,0.3158,0,0.2286,0.233,0.2385,0.2473,0.2494,0.2531,0.2624,0.2679,0.2785,0.2827,0.2899,0.2934,0.3027,0.2984,0.3119,0.3065,0.3105,0.3134,0.314,0.3117,0.3072,0.3126,0.3234,0.3175,0.3185,0.3183,0.3181,0,0.2246,0.2333,0.2375,0.2403,0.2502,0.2538,0.2593,0.2692,0.2751,0.2874,0.2932,0.3035,0.3097,0.3166,0.3229,0.3185,0.3371,0.3316,0.3345,0.3344,0.3301,0.3291,0.3362,0.3421,0.3421,0.342,0.342,0,0.2241,0.2273,0.2356,0.2379,0.2435,0.2515,0.2582,0.2661,0.2777,0.2857,0.2959,0.3042,0.3145,0.3253,0.3288,0.3389,0.3428,0.3389,0.3397,0.3318,0.3307,0.3266,0.3227,0.3426,0.3425,0.3424,0.3423,0,0.2188,0.2244,0.2291,0.2386,0.2413,0.2449,0.2557,0.2614,0.2738,0.285,0.2896,0.308,0.3226,0.3328,0.3463,0.3473,0.3479,0.3577,0.3481,0.3473,0.3407,0.3373,0.332,0.3206,0.3639,0.3639,0.364,0,0.2166,0.2185,0.2267,0.229,0.2327,0.239,0.2436,0.2569,0.2644,0.2861,0.2924,0.3115,0.3241,0.3462,0.3535,0.3643,0.3515,0.3616,0.351,0.3431,0.34,0.323,0.3124,0.3485,0.3485,0.3484,0.3484,0,0.2122,0.2144,0.2184,0.2225,0.2266,0.2312,0.2399,0.2452,0.2623,0.2738,0.2912,0.3036,0.329,0.3399,0.3564,0.3603,0.3457,0.3605,0.3556,0.3329,0.3117,0.3001,0.3353,0.3478,0.3479,0.3479,0.348,0.348,0.2074,0.2082,0.2126,0.2157,0.2198,0.2227,0.2238,0.2355,0.2457,0.262,0.2807,0.2967,0.3236,0.3468,0.3485,0.351,0.3424,0.3442,0.3426,0.3273,0.31,0.3442,0.3543,0.3544,0.3545,0.3545,0.3546,0,0.2012,0.203,0.2059,0.2088,0.2088,0.2136,0.2207,0.2213,0.2292,0.2494,0.2636,0.2917,0.3101,0.3281,0.3454,0.3373,0.3173,0.3289,0.3045,0.2958,0.3326,0.3255,0.3257,0.3257,0.3257,0.3257,0.3257,0.3257,0.1982,0.1978,0.1991,0.1964,0.1978,0.1948,0.1957,0.1998,0.2116,0.2277,0.2443,0.2632,0.3049,0.3369,0.3392,0.3295,0.3009,0.2904,0.2833,0.3134,0.3146,0.3157,0.3082,0.3047,0.3046,0.2338,0.2333,0.233]},{"header":{"parameterUnit":"m.s-1","parameterCategory":2,"la1":30.2991,"la2":30.254,"lo1":-89.0895,"lo2":-89.0444,"dy":0.0017,"dx":0.0017,"nx":28,"ny":28,"refTime":"2025-02-09T09:00:00:Z","depth":"0","parameterNumber":3,"parameterNumberName":"V-component_of_CURRENTS"},"data":[0,0,0,0,0,0,0,0,0,0,0,0,0,0,0,0,0,0,0,0,0,0,0,0,0,0,0,0,0,0,0,0,0,0,0,0,0,0,0,0,0,0,0,0,0,0,0,0,0,0,0,0,0,0,0,0,0,0,-0.0085,-0.0085,0,-0.0175,-0.0176,-0.0177,-0.0237,-0.0238,-0.0238,-0.0238,-0.0356,-0.0359,-0.0362,0,0,0,0,0,0,0,0,0,0,0,0,0,-0.0009,-0.001,-0.0084,-0.0086,-0.0087,-0.0175,-0.0176,-0.0178,-0.0237,-0.0238,-0.0238,-0.0239,-0.0355,-0.0359,-0.0362,0,0,0,0,0,0,0,0,0,0,0,0,0,-0.0066,-0.001,-0.0084,-0.0127,-0.0131,-0.0175,-0.0176,-0.0178,-0.0237,-0.0238,-0.0238,-0.0239,-0.0354,-0.0358,-0.0362,-0.0378,0,0,-0.0375,-0.0377,0,0,0,0,0,0,0,0,-0.0062,-0.0068,-0.0119,-0.0124,-0.0129,-0.0195,-0.0193,-0.0246,-0.0237,-0.0198,-0.0238,-0.0239,-0.0304,-0.0313,-0.0329,-0.0383,-0.0388,-0.0376,-0.0378,-0.038,-0.0381,0,0,0,0,0,0,0,-0.0058,-0.0065,-0.0121,-0.012,-0.0126,-0.0157,-0.0165,-0.0204,-0.0248,-0.0201,-0.0205,-0.0215,-0.0307,-0.0324,-0.0332,-0.039,-0.0376,-0.0379,-0.0382,-0.0384,-0.0463,-0.0463,0,0,0,0,0,0,-0.0043,-0.0061,-0.0118,-0.0124,-0.0096,-0.0158,-0.0167,-0.0174,-0.0247,-0.0258,-0.0214,-0.0217,-0.0317,-0.0327,-0.0336,-0.035,-0.038,-0.0384,-0.0386,-0.0464,-0.0463,-0.0463,0,0,0,0,0,0,-0.0041,-0.0047,-0.0114,-0.0094,-0.0105,-0.0158,-0.0166,-0.0175,-0.0193,-0.0256,-0.0268,-0.0221,-0.0318,-0.033,-0.0365,-0.0356,-0.0386,-0.039,-0.0464,-0.0464,-0.0463,-0.0384,0,0,0,0,0,0,-0.0038,-0.0046,-0.0043,-0.0093,-0.0105,-0.0131,-0.0165,-0.0177,-0.0197,-0.0202,-0.0266,-0.0278,-0.0319,-0.0358,-0.0369,-0.0362,-0.0393,-0.0465,-0.0464,-0.0463,-0.0387,-0.038,-0.0375,0,0,0,0,0,-0.0035,-0.0027,-0.0043,-0.005,-0.0101,-0.013,-0.0139,-0.018,-0.0197,-0.0198,-0.0242,-0.0276,-0.0361,-0.0361,-0.0374,-0.0368,-0.0465,-0.0464,-0.0463,-0.0389,-0.0382,-0.0375,0,0,0,0,0,0,0.0008,-0.0034,-0.0052,-0.0057,-0.0087,-0.014,-0.0144,-0.0173,-0.0209,-0.0213,-0.0273,-0.0288,-0.0315,-0.0351,-0.035,-0.0389,-0.0418,-0.0419,-0.0357,-0.0351,-0.0345,-0.0327,-0.0396,0,0,0,0,0,0.002,0.0014,-0.0031,-0.0033,-0.0045,-0.0093,-0.0109,-0.0136,-0.0176,-0.0192,-0.0237,-0.0282,-0.0321,-0.0342,-0.0382,-0.0403,-0.0437,-0.0407,-0.0401,-0.0396,-0.039,-0.0442,-0.044,-0.046,-0.046,-0.046,0,0,0.0035,0.0013,0.0009,-0.0024,-0.0051,-0.0058,-0.0104,-0.0121,-0.0128,-0.0199,-0.0218,-0.0264,-0.0322,-0.0346,-0.0361,-0.0375,-0.0403,-0.0395,-0.0389,-0.0387,-0.044,-0.0439,-0.0437,-0.0459,-0.0459,-0.0459,0,0,0.0068,0.0047,0.0053,0.0033,0.0,-0.0028,-0.0029,-0.0076,-0.0096,-0.0122,-0.0173,-0.0211,-0.0269,-0.0308,-0.0336,-0.0321,-0.0371,-0.0333,-0.029,-0.0339,-0.0338,-0.0337,-0.0356,-0.0358,-0.0329,-0.0329,-0.0329,0,0.009,0.009,0.0051,0.0053,0.0045,-0.0008,0.0,-0.0028,-0.008,-0.0092,-0.0116,-0.0201,-0.0251,-0.0285,-0.028,-0.0307,-0.0335,-0.031,-0.0331,-0.0331,-0.0332,-0.0352,-0.0355,-0.0325,-0.0326,-0.0326,-0.0326,0,0.0123,0.0124,0.0129,0.0114,0.0102,0.0101,0.0061,0.0047,0.0016,-0.0018,-0.0057,-0.0127,-0.0177,-0.0199,-0.0237,-0.0263,-0.0279,-0.0317,-0.0346,-0.0325,-0.0347,-0.0352,-0.032,-0.0321,-0.0322,-0.0323,0,0,0.0167,0.0156,0.0157,0.0168,0.0136,0.0133,0.0127,0.0105,0.0108,0.0047,0.0041,-0.0037,-0.0079,-0.0113,-0.017,-0.0214,-0.024,-0.0261,-0.0265,-0.0272,-0.0327,-0.032,-0.0324,-0.0285,-0.0286,-0.0286,-0.0332,0,0.0206,0.0232,0.021,0.024,0.0252,0.0212,0.0214,0.0187,0.0154,0.0136,0.0056,0.0026,-0.0046,-0.0065,-0.0123,-0.0209,-0.0252,-0.0222,-0.0353,-0.0356,-0.0347,-0.033,-0.0317,-0.0357,-0.0337,-0.0338,-0.0339,0,0.0245,0.0259,0.0293,0.0311,0.0313,0.0319,0.032,0.0314,0.0269,0.0241,0.0187,0.0128,0.006,-0.0006,-0.0145,-0.0123,-0.0216,-0.0288,-0.0293,-0.0318,-0.0357,-0.038,-0.0366,-0.0542,-0.0346,-0.0346,-0.0345,0,0.0299,0.032,0.0354,0.0357,0.0361,0.0372,0.0372,0.0344,0.036,0.0308,0.0315,0.0209,0.0179,0.0035,-0.0104,-0.013,-0.0249,-0.0309,-0.0388,-0.0387,-0.0419,-0.042,-0.0586,-0.0412,-0.0411,-0.0411,-0.0411,0,0.0348,0.0379,0.0383,0.0403,0.0453,0.043,0.0471,0.0455,0.0449,0.0485,0.0374,0.0389,0.0187,0.01,-0.0063,-0.0218,-0.0221,-0.0371,-0.0402,-0.0387,-0.0385,-0.0574,-0.0688,-0.0413,-0.0413,-0.0412,-0.0412,0,0.0399,0.04,0.0446,0.0466,0.0479,0.0512,0.0551,0.0585,0.0562,0.0608,0.0604,0.0533,0.0422,0.0228,0.0022,-0.0136,-0.0408,-0.0362,-0.031,-0.0334,-0.0587,-0.0695,-0.0905,-0.098,-0.0468,-0.0468,-0.0468,0,0.0426,0.0454,0.0499,0.0538,0.0548,0.0593,0.0635,0.0636,0.069,0.071,0.0756,0.0675,0.0647,0.0359,0.0067,-0.0202,-0.0395,-0.0377,-0.044,-0.059,-0.0736,-0.082,-0.0875,-0.0444,-0.0444,-0.0444,-0.0444,0,0.0485,0.0496,0.0537,0.0614,0.0667,0.0731,0.0798,0.0866,0.0888,0.0939,0.101,0.0991,0.0729,0.0486,0.0117,-0.0099,-0.0509,-0.0383,-0.0572,-0.0753,-0.0826,-0.0915,-0.0405,-0.0443,-0.0443,-0.0443,-0.0443,-0.0443,0.0533,0.0573,0.0627,0.0703,0.077,0.0869,0.0949,0.1041,0.1152,0.126,0.1223,0.1237,0.0858,0.0363,0.0056,-0.049,-0.0517,-0.0665,-0.0786,-0.0858,-0.0935,-0.0399,-0.0455,-0.0455,-0.0455,-0.0455,-0.0455,0,0.0599,0.0643,0.0717,0.0811,0.0899,0.0919,0.1063,0.1165,0.1327,0.1422,0.1485,0.1318,0.0837,0.0326,-0.0396,-0.0802,-0.0974,-0.1039,-0.118,-0.1219,-0.0768,-0.077,-0.0856,-0.0856,-0.0856,-0.0855,-0.0855,-0.0855,0.0639,0.0719,0.0754,0.0903,0.0977,0.1115,0.1209,0.1369,0.1484,0.1626,0.1654,0.1641,0.1267,-0.007,-0.0973,-0.1204,-0.1512,-0.1588,-0.1727,-0.1447,-0.1422,-0.1398,-0.1425,-0.1648,-0.1649,-0.2114,-0.2119,-0.2123]}],[{"header":{"parameterUnit":"m.s-1","parameterCategory":2,"la1":30.2991,"la2":30.254,"lo1":-89.0895,"lo2":-89.0444,"dy":0.0017,"dx":0.0017,"nx":28,"ny":28,"refTime":"2025-02-09T09:00:00:Z","depth":"2","parameterNumber":2,"parameterNumberName":"U-component_of_CURRENTS"},"data":[0,0,0,0,0,0,0,0,0,0,0,0,0,0,0,0,0,0,0,0,0,0,0,0,0,0,0,0,0,0,0,0,0,0,0,0,0,0,0,0,0,0,0,0,0,0,0,0,0,0,0,0,0,0,0,0,0,0,0.2234,0.2234,0,0.2275,0.2275,0.2275,0.2279,0.2279,0.2278,0.2278,0.2297,0.2298,0.2298,0,0,0,0,0,0,0,0,0,0,0,0,0,0.2158,0.2159,0.2234,0.2234,0.2235,0.2274,0.2275,0.2275,0.2279,0.2279,0.2278,0.2278,0.2297,0.2297,0.2298,0,0,0,0,0,0,0,0,0,0,0,0,0,0.2192,0.216,0.2233,0.2244,0.2245,0.2274,0.2275,0.2275,0.2279,0.2279,0.2278,0.2278,0.2296,0.2297,0.2298,0.2311,0,0,0.2302,0.2302,0,0,0,0,0,0,0,0,0.219,0.2194,0.2241,0.2243,0.2245,0.2273,0.2255,0.2287,0.2279,0.2263,0.2278,0.2278,0.2289,0.229,0.2296,0.2312,0.2312,0.2302,0.2302,0.2303,0.2303,0,0,0,0,0,0,0,0.2188,0.2193,0.2247,0.2242,0.2244,0.2246,0.225,0.2261,0.2275,0.2265,0.2266,0.2274,0.2289,0.2295,0.2296,0.2313,0.2302,0.2303,0.2303,0.2304,0.2385,0.2386,0,0,0,0,0,0,0.2188,0.2191,0.2246,0.2249,0.2219,0.2248,0.2252,0.2262,0.2275,0.2278,0.2275,0.2274,0.2293,0.2295,0.2297,0.2351,0.2303,0.2304,0.2304,0.2383,0.2385,0.2387,0,0,0,0,0,0,0.2186,0.2193,0.2244,0.2222,0.2229,0.225,0.2261,0.2263,0.2278,0.2284,0.2285,0.2287,0.2293,0.2295,0.2322,0.235,0.2304,0.2305,0.2381,0.2384,0.2386,0.2435,0,0,0,0,0,0,0.2184,0.2192,0.2201,0.2222,0.2231,0.2273,0.2262,0.2265,0.2284,0.2284,0.2295,0.2296,0.2293,0.232,0.2323,0.2351,0.2306,0.2379,0.2382,0.2385,0.2432,0.2439,0.2445,0,0,0,0,0,0.2181,0.2195,0.2202,0.2209,0.2242,0.2275,0.2279,0.229,0.2285,0.23,0.2308,0.2296,0.234,0.2322,0.2325,0.2354,0.2378,0.2382,0.2385,0.2428,0.2437,0.2445,0,0,0,0,0,0,0.2166,0.2198,0.2205,0.2228,0.2255,0.2276,0.2292,0.2298,0.2315,0.2315,0.2313,0.2315,0.2351,0.2347,0.2327,0.2387,0.2359,0.2363,0.2391,0.2399,0.2406,0.2411,0.2307,0,0,0,0,0,0.2168,0.2189,0.2219,0.2239,0.2254,0.2274,0.2289,0.2299,0.2317,0.2324,0.2332,0.2345,0.2367,0.2378,0.2393,0.2423,0.2439,0.2445,0.2452,0.2457,0.2465,0.252,0.2533,0.2398,0.2398,0.2398,0,0,0.2166,0.2189,0.2199,0.2238,0.2258,0.2286,0.2282,0.2312,0.2336,0.2324,0.2357,0.2369,0.2381,0.2418,0.2434,0.2418,0.2506,0.2462,0.2466,0.2471,0.2525,0.2539,0.255,0.24,0.24,0.24,0,0,0.2175,0.2196,0.2217,0.2244,0.2283,0.23,0.2311,0.2341,0.2358,0.2392,0.2394,0.2426,0.2449,0.2471,0.2483,0.2537,0.2541,0.2542,0.258,0.2634,0.2646,0.2656,0.2699,0.2713,0.2544,0.2544,0.2544,0,0.2171,0.2203,0.2228,0.2258,0.2283,0.2308,0.2337,0.2361,0.2396,0.2419,0.2409,0.2472,0.2478,0.2535,0.2554,0.2553,0.2581,0.2546,0.2643,0.2654,0.2663,0.2705,0.272,0.2547,0.2547,0.2546,0.2546,0,0.2195,0.2225,0.2242,0.2288,0.2319,0.235,0.2389,0.2419,0.2439,0.2466,0.2526,0.2542,0.2581,0.2591,0.2588,0.2664,0.2661,0.2646,0.2621,0.268,0.272,0.2735,0.2551,0.255,0.2549,0.2549,0,0,0.217,0.2244,0.2249,0.2277,0.2338,0.2362,0.2415,0.2471,0.251,0.2548,0.2604,0.2646,0.2662,0.2677,0.2685,0.2728,0.2818,0.2719,0.272,0.2759,0.2941,0.2922,0.2935,0.2824,0.2826,0.2828,0.2944,0,0.2181,0.2236,0.2274,0.2326,0.2357,0.2405,0.2454,0.2509,0.2554,0.2615,0.2657,0.2712,0.2694,0.2722,0.2765,0.2809,0.2858,0.2788,0.288,0.2883,0.2857,0.2952,0.2731,0.2814,0.2957,0.296,0.2961,0,0.2187,0.2227,0.2276,0.2352,0.2371,0.2405,0.2487,0.2538,0.2632,0.2673,0.2739,0.2774,0.2855,0.2824,0.2936,0.2896,0.2926,0.2951,0.2955,0.2929,0.289,0.2778,0.2834,0.2985,0.2983,0.2982,0.298,0,0.2149,0.2226,0.2264,0.2289,0.2377,0.241,0.2461,0.2552,0.2607,0.2717,0.2773,0.2861,0.292,0.2978,0.3033,0.2997,0.3151,0.3105,0.3117,0.3115,0.2941,0.2919,0.3189,0.3188,0.3188,0.3188,0.3188,0,0.2141,0.217,0.2248,0.2267,0.2318,0.2392,0.2456,0.2526,0.2635,0.2708,0.28,0.2874,0.2964,0.3055,0.3082,0.316,0.3197,0.3152,0.3157,0.2952,0.2932,0.3081,0.3067,0.3192,0.3191,0.319,0.319,0,0.209,0.2143,0.2186,0.2272,0.2299,0.2335,0.2442,0.2494,0.2611,0.2712,0.2757,0.2914,0.304,0.3123,0.3234,0.3229,0.3295,0.3306,0.3062,0.3036,0.3207,0.3194,0.3337,0.3337,0.3338,0.3338,0.3338,0,0.207,0.2087,0.2166,0.2189,0.2225,0.2289,0.2336,0.2461,0.2529,0.2725,0.2777,0.2947,0.3046,0.3223,0.3262,0.3338,0.3345,0.3155,0.3045,0.3238,0.3229,0.3215,0.3202,0.2832,0.2828,0.2825,0.2822,0,0.2027,0.2051,0.2086,0.2132,0.2175,0.222,0.2307,0.2353,0.2508,0.2609,0.2757,0.2859,0.3057,0.3058,0.3178,0.3175,0.3126,0.3095,0.3379,0.2833,0.2773,0.276,0.2762,0.2794,0.2797,0.2799,0.2801,0.2802,0.1984,0.1993,0.2036,0.2069,0.2114,0.2143,0.2154,0.2257,0.2345,0.2473,0.2637,0.2724,0.2838,0.2918,0.288,0.286,0.3059,0.2917,0.2921,0.2931,0.2857,0.2801,0.2814,0.2816,0.2819,0.2821,0.2823,0,0.1925,0.1944,0.1974,0.2005,0.201,0.2063,0.2126,0.212,0.2178,0.2328,0.2438,0.2352,0.2418,0.2509,0.2463,0.2515,0.2434,0.2397,0.2257,0.2292,0.232,0.2208,0.1996,0.1993,0.1989,0.1986,0,0,0.1897,0.1893,0.1903,0.1885,0.1907,0.1886,0.1893,0.1907,0.1986,0.201,0.2057,0.2289,0.245,0.2168,0.2183,0.207,0.2138,0.1994,0.2674,0.2544,0.2567,0.2663,0.2536,0,0,0,0,0]},{"header":{"parameterUnit":"m.s-1","parameterCategory":2,"la1":30.2991,"la2":30.254,"lo1":-89.0895,"lo2":-89.0444,"dy":0.0017,"dx":0.0017,"nx":28,"ny":28,"refTime":"2025-02-09T09:00:00:Z","depth":"2","parameterNumber":3,"parameterNumberName":"V-component_of_CURRENTS"},"data":[0,0,0,0,0,0,0,0,0,0,0,0,0,0,0,0,0,0,0,0,0,0,0,0,0,0,0,0,0,0,0,0,0,0,0,0,0,0,0,0,0,0,0,0,0,0,0,0,0,0,0,0,0,0,0,0,0,0,-0.0186,-0.0187,0,-0.0262,-0.0263,-0.0263,-0.0314,-0.0314,-0.0314,-0.0315,-0.0418,-0.042,-0.0422,0,0,0,0,0,0,0,0,0,0,0,0,0,-0.0129,-0.0129,-0.0186,-0.0187,-0.0188,-0.0262,-0.0263,-0.0264,-0.0314,-0.0314,-0.0314,-0.0315,-0.0417,-0.042,-0.0423,0,0,0,0,0,0,0,0,0,0,0,0,0,-0.0174,-0.013,-0.0186,-0.0221,-0.0225,-0.0261,-0.0263,-0.0264,-0.0314,-0.0314,-0.0314,-0.0315,-0.0416,-0.0419,-0.0423,-0.0437,0,0,-0.0434,-0.0436,0,0,0,0,0,0,0,0,-0.0172,-0.0176,-0.0215,-0.0219,-0.0223,-0.0278,-0.028,-0.0323,-0.0313,-0.028,-0.0315,-0.0315,-0.0373,-0.038,-0.0394,-0.0442,-0.0446,-0.0435,-0.0437,-0.0438,-0.044,0,0,0,0,0,0,0,-0.0168,-0.0174,-0.0216,-0.0216,-0.0221,-0.0248,-0.0255,-0.0289,-0.0324,-0.0283,-0.0287,-0.0295,-0.0375,-0.039,-0.0396,-0.0448,-0.0435,-0.0438,-0.044,-0.0442,-0.0512,-0.0512,0,0,0,0,0,0,-0.0155,-0.017,-0.0214,-0.0219,-0.0197,-0.0249,-0.0256,-0.0261,-0.0323,-0.0333,-0.0294,-0.0297,-0.0383,-0.0392,-0.04,-0.0411,-0.0438,-0.0442,-0.0444,-0.0513,-0.0512,-0.0512,0,0,0,0,0,0,-0.0154,-0.0158,-0.0211,-0.0196,-0.0205,-0.0249,-0.0254,-0.0262,-0.0276,-0.0331,-0.0341,-0.03,-0.0384,-0.0395,-0.0426,-0.0416,-0.0444,-0.0447,-0.0513,-0.0512,-0.0512,-0.0439,0,0,0,0,0,0,-0.0152,-0.0157,-0.0154,-0.0195,-0.0205,-0.0224,-0.0253,-0.0263,-0.028,-0.0284,-0.0339,-0.0349,-0.0385,-0.042,-0.0429,-0.0422,-0.045,-0.0513,-0.0513,-0.0512,-0.0442,-0.0437,-0.0432,0,0,0,0,0,-0.0149,-0.014,-0.0153,-0.0159,-0.02,-0.0224,-0.0231,-0.0265,-0.0279,-0.028,-0.0318,-0.0348,-0.0423,-0.0423,-0.0434,-0.0427,-0.0514,-0.0513,-0.0512,-0.0445,-0.0438,-0.0432,0,0,0,0,0,0,-0.0113,-0.0146,-0.0161,-0.0162,-0.0188,-0.0232,-0.0235,-0.0259,-0.029,-0.0293,-0.0346,-0.0358,-0.0382,-0.0414,-0.0413,-0.0446,-0.0472,-0.0474,-0.0417,-0.0411,-0.0406,-0.0387,-0.0453,0,0,0,0,0,-0.0103,-0.0105,-0.0142,-0.0142,-0.0151,-0.0192,-0.0205,-0.0227,-0.0261,-0.0275,-0.0313,-0.0353,-0.0388,-0.0406,-0.0441,-0.0459,-0.0488,-0.0461,-0.0456,-0.0451,-0.0444,-0.0484,-0.0481,-0.0509,-0.0509,-0.0509,0,0,-0.0089,-0.0107,-0.0109,-0.0135,-0.0156,-0.016,-0.0201,-0.0213,-0.0217,-0.0281,-0.0295,-0.0337,-0.0389,-0.0409,-0.0422,-0.0434,-0.0457,-0.045,-0.0445,-0.0441,-0.0483,-0.048,-0.0477,-0.0509,-0.0509,-0.0509,0,0,-0.0058,-0.0076,-0.0067,-0.0083,-0.0109,-0.0133,-0.0133,-0.0171,-0.0189,-0.021,-0.0255,-0.0289,-0.034,-0.0373,-0.0398,-0.0384,-0.0428,-0.0396,-0.0353,-0.0392,-0.039,-0.0388,-0.041,-0.0411,-0.0391,-0.0391,-0.0391,0,-0.0039,-0.0034,-0.0068,-0.0063,-0.0068,-0.0115,-0.0103,-0.0127,-0.0171,-0.018,-0.0203,-0.0277,-0.0322,-0.0349,-0.0346,-0.0371,-0.0396,-0.0372,-0.0384,-0.0383,-0.0383,-0.0406,-0.0409,-0.0388,-0.0388,-0.0388,-0.0389,0,-0.0004,0.0001,0.0007,-0.0001,-0.0011,-0.0009,-0.0043,-0.0053,-0.0081,-0.011,-0.0143,-0.0206,-0.0248,-0.0269,-0.0306,-0.0324,-0.0342,-0.0373,-0.0397,-0.0375,-0.0402,-0.0405,-0.0382,-0.0384,-0.0385,-0.0386,0,0,0.0039,0.0033,0.0036,0.0048,0.0023,0.0024,0.0021,0.0005,0.001,-0.0044,-0.0046,-0.0116,-0.0154,-0.0184,-0.0237,-0.0272,-0.0294,-0.0315,-0.0319,-0.033,-0.0367,-0.0373,-0.0378,-0.0328,-0.0329,-0.0329,-0.0381,0,0.0078,0.0108,0.009,0.0123,0.0138,0.0103,0.0108,0.0086,0.0057,0.0043,-0.0029,-0.0054,-0.0121,-0.0137,-0.0186,-0.0266,-0.0302,-0.0276,-0.0392,-0.0395,-0.0398,-0.0382,-0.0354,-0.0398,-0.0385,-0.0386,-0.0386,0,0.0119,0.0135,0.0173,0.0194,0.0198,0.0206,0.0212,0.0209,0.0171,0.0146,0.01,0.0046,-0.0014,-0.0074,-0.0199,-0.0179,-0.0264,-0.033,-0.0334,-0.0368,-0.0408,-0.0421,-0.0406,-0.0393,-0.0392,-0.0392,-0.0392,0,0.0171,0.0197,0.0233,0.0237,0.0246,0.0259,0.0262,0.024,0.0255,0.0212,0.0218,0.0125,0.0095,-0.0029,-0.0165,-0.0183,-0.0298,-0.0343,-0.0427,-0.0428,-0.0441,-0.0442,-0.0429,-0.0429,-0.0429,-0.0429,-0.0429,0,0.0219,0.0251,0.0261,0.0281,0.0332,0.0315,0.0357,0.0345,0.0341,0.0373,0.0276,0.0285,0.0105,0.0019,-0.0128,-0.0277,-0.0273,-0.0412,-0.0442,-0.0414,-0.0412,-0.0441,-0.0442,-0.0431,-0.043,-0.043,-0.043,0,0.0267,0.0271,0.0318,0.0342,0.0357,0.0391,0.043,0.0462,0.0444,0.0484,0.0482,0.0409,0.0299,0.0121,-0.0067,-0.021,-0.0365,-0.0421,-0.0365,-0.0388,-0.0479,-0.0476,-0.0522,-0.0523,-0.0523,-0.0524,-0.0524,0,0.0292,0.032,0.0368,0.0406,0.0418,0.0464,0.0504,0.0509,0.0556,0.057,0.0608,0.0525,0.0484,0.0208,-0.0052,-0.0298,-0.0343,-0.0441,-0.048,-0.0464,-0.0489,-0.0485,-0.048,-0.0466,-0.0466,-0.0466,-0.0465,0,0.0343,0.0356,0.0396,0.0472,0.0523,0.0585,0.0648,0.0705,0.0726,0.0767,0.0816,0.0788,0.0538,0.0306,-0.0035,-0.0213,-0.0404,-0.0447,-0.0448,-0.0443,-0.0414,-0.0438,-0.0435,-0.0465,-0.0465,-0.0465,-0.0465,-0.0465,0.0381,0.0418,0.047,0.0543,0.0611,0.0701,0.0766,0.0846,0.0936,0.1016,0.0982,0.0952,0.0673,0.0257,-0.0051,-0.0383,-0.0381,-0.0503,-0.0502,-0.0501,-0.0482,-0.0455,-0.0509,-0.0509,-0.0509,-0.051,-0.051,0,0.0426,0.0469,0.0541,0.0628,0.071,0.0739,0.0862,0.0927,0.1049,0.1132,0.1171,0.0922,0.066,0.0333,-0.0147,-0.044,-0.0476,-0.0537,-0.0511,-0.051,-0.0509,-0.049,-0.052,-0.0521,-0.0521,-0.0522,0,0,0.0452,0.052,0.0553,0.0689,0.0763,0.0878,0.0954,0.1054,0.1139,0.1218,0.1225,0.1189,0.0786,0.0447,0.0044,-0.0232,-0.0309,-0.0297,-0.0259,-0.0179,-0.0175,-0.046,-0.0426,0,0,0,0,0]}],[{"header":{"parameterUnit":"m.s-1","parameterCategory":2,"la1":30.2991,"la2":30.254,"lo1":-89.0895,"lo2":-89.0444,"dy":0.0017,"dx":0.0017,"nx":28,"ny":28,"refTime":"2025-02-09T09:00:00:Z","depth":"4","parameterNumber":2,"parameterNumberName":"U-component_of_CURRENTS"},"data":[0,0,0,0,0,0,0,0,0,0,0,0,0,0,0,0,0,0,0,0,0,0,0,0,0,0,0,0,0,0,0,0,0,0,0,0,0,0,0,0,0,0,0,0,0,0,0,0,0,0,0,0,0,0,0,0,0,0,0.1517,0.1518,0,0.1589,0.159,0.159,0.1644,0.1644,0.1645,0.1646,0.1719,0.172,0.1721,0,0,0,0,0,0,0,0,0,0,0,0,0,0.1419,0.1421,0.1517,0.1518,0.152,0.1589,0.159,0.1591,0.1644,0.1644,0.1645,0.1646,0.1718,0.172,0.1722,0,0,0,0,0,0,0,0,0,0,0,0,0,0.1471,0.1421,0.1517,0.1556,0.156,0.1589,0.159,0.1591,0.1643,0.1644,0.1645,0.1646,0.1718,0.172,0.1722,0.1715,0,0,0.1728,0.1729,0,0,0,0,0,0,0,0,0.1468,0.1475,0.1549,0.1553,0.1558,0.161,0.1582,0.1633,0.1643,0.161,0.1646,0.1647,0.1683,0.1688,0.1697,0.1718,0.1721,0.1728,0.1729,0.173,0.1731,0,0,0,0,0,0,0,0.1465,0.1472,0.1544,0.155,0.1556,0.1567,0.1576,0.1592,0.1639,0.1613,0.1617,0.1628,0.1686,0.1694,0.1699,0.1722,0.1728,0.173,0.1731,0.1732,0.1841,0.1842,0,0,0,0,0,0,0.1459,0.1469,0.1542,0.1546,0.1517,0.1568,0.1578,0.1591,0.1639,0.1647,0.1627,0.163,0.1691,0.1696,0.1702,0.1786,0.173,0.1732,0.1733,0.1839,0.1841,0.1843,0,0,0,0,0,0,0.1457,0.1465,0.1539,0.151,0.1521,0.1569,0.1584,0.1592,0.1634,0.165,0.1658,0.1665,0.1692,0.1699,0.175,0.1785,0.1733,0.1735,0.1837,0.184,0.1842,0.1896,0,0,0,0,0,0,0.1454,0.1464,0.1486,0.151,0.1522,0.1578,0.1583,0.1593,0.1638,0.1643,0.1684,0.169,0.1693,0.1747,0.1752,0.1787,0.1736,0.1835,0.1838,0.1841,0.1892,0.19,0.1907,0,0,0,0,0,0.145,0.1471,0.1487,0.1496,0.1546,0.1579,0.1587,0.1622,0.1639,0.1663,0.1695,0.1691,0.177,0.175,0.1755,0.1792,0.1833,0.1837,0.1841,0.1889,0.1899,0.1907,0,0,0,0,0,0,0.1441,0.1479,0.1497,0.153,0.1564,0.159,0.162,0.1639,0.1683,0.1699,0.171,0.1719,0.1777,0.1777,0.1754,0.1833,0.1802,0.1807,0.1836,0.1846,0.1853,0.1846,0.1738,0,0,0,0,0,0.1448,0.1478,0.1511,0.1542,0.1562,0.1596,0.162,0.1645,0.1678,0.17,0.1729,0.176,0.179,0.1813,0.1836,0.1878,0.1882,0.1907,0.1914,0.192,0.192,0.1957,0.1967,0.1855,0.1855,0.1855,0,0,0.1453,0.148,0.1498,0.1544,0.1574,0.1606,0.1614,0.1661,0.1695,0.17,0.1765,0.1789,0.1807,0.1858,0.1883,0.1867,0.1958,0.1925,0.193,0.1926,0.1962,0.1973,0.1982,0.1858,0.1858,0.1857,0,0,0.1468,0.1506,0.1532,0.1563,0.1616,0.1636,0.1656,0.1702,0.1736,0.179,0.1806,0.1853,0.1899,0.192,0.1934,0.1995,0.1995,0.2011,0.2045,0.2082,0.2091,0.2099,0.2131,0.2141,0.2016,0.2016,0.2016,0,0.1475,0.1512,0.1546,0.1579,0.161,0.1652,0.1685,0.1721,0.1781,0.1811,0.1822,0.1907,0.1925,0.198,0.2006,0.2012,0.2032,0.2009,0.2091,0.2099,0.2106,0.2137,0.2147,0.2019,0.2018,0.2018,0.2018,0,0.15,0.1541,0.1563,0.1617,0.1654,0.1694,0.1741,0.179,0.1835,0.1867,0.1944,0.1975,0.2024,0.2042,0.2044,0.2111,0.211,0.2095,0.2065,0.2121,0.2149,0.216,0.2023,0.2022,0.2021,0.202,0,0,0.1477,0.1563,0.1573,0.1606,0.1681,0.1708,0.1774,0.1835,0.1883,0.1947,0.2008,0.2066,0.2092,0.211,0.2127,0.216,0.2235,0.2157,0.2157,0.2182,0.2324,0.2209,0.2209,0.224,0.2242,0.2244,0.2327,0,0.1489,0.1549,0.1593,0.1656,0.169,0.1753,0.1809,0.1874,0.1932,0.2002,0.2052,0.2118,0.2116,0.2155,0.2189,0.2226,0.2263,0.2214,0.2271,0.2272,0.2158,0.2216,0.225,0.2335,0.2337,0.2339,0.234,0,0.149,0.1534,0.1595,0.168,0.1703,0.175,0.1845,0.1901,0.2,0.2051,0.2122,0.2165,0.2243,0.2226,0.2316,0.229,0.2314,0.2331,0.2335,0.2211,0.2175,0.2266,0.2358,0.2357,0.2355,0.2354,0.2353,0,0.1442,0.1531,0.1581,0.1611,0.1713,0.1761,0.1823,0.192,0.1976,0.2091,0.2147,0.2231,0.2298,0.2338,0.2391,0.2366,0.2479,0.2442,0.2359,0.2352,0.2405,0.2395,0.2498,0.2498,0.2497,0.2497,0.2497,0,0.1419,0.1461,0.1569,0.1595,0.1663,0.1746,0.1825,0.1899,0.2009,0.2076,0.2174,0.2235,0.2332,0.2407,0.2425,0.2431,0.2512,0.2372,0.2366,0.2428,0.242,0.2413,0.2402,0.25,0.25,0.2499,0.2498,0,0.1352,0.1425,0.1487,0.1602,0.1641,0.1691,0.182,0.1873,0.1993,0.2086,0.2132,0.2272,0.2367,0.2446,0.2529,0.247,0.2488,0.247,0.2554,0.255,0.2324,0.2316,0.2365,0.2362,0.2359,0.2357,0.2355,0,0.1321,0.1348,0.1472,0.1512,0.1569,0.1658,0.1717,0.1849,0.1906,0.2086,0.2122,0.227,0.2348,0.2374,0.2463,0.2499,0.2472,0.246,0.236,0.2322,0.2312,0.2308,0.2303,0.235,0.2349,0.2349,0.2348,0,0.1257,0.1315,0.1366,0.1447,0.1517,0.158,0.168,0.1707,0.186,0.1988,0.2063,0.2121,0.2232,0.2296,0.2357,0.237,0.2449,0.2429,0.2433,0.2339,0.2305,0.2296,0.2295,0.2338,0.234,0.234,0.2341,0,0.1211,0.123,0.1308,0.1366,0.1449,0.1484,0.1543,0.162,0.1692,0.1887,0.1911,0.2069,0.2207,0.2233,0.2285,0.23,0.2252,0.2161,0.2178,0.219,0.2095,0.2024,0.1972,0,0,0,0,0,0.1155,0.1169,0.122,0.1278,0.1355,0.1403,0.1514,0.1577,0.1723,0.1729,0.1813,0.1904,0.1986,0.2073,0.2054,0.2216,0.2265,0.2184,0.2168,0.2283,0.2295,0.22,0,0,0,0,0,0,0.1117,0.1162,0.1185,0.1193,0.1217,0.1286,0.135,0.1447,0.1459,0.1615,0.1672,0.1794,0.1907,0.198,0.2018,0.2046,0.1998,0.2287,0.2283,0.2277,0.2287,0.2296,0.2203,0,0,0,0,0]},{"header":{"parameterUnit":"m.s-1","parameterCategory":2,"la1":30.2991,"la2":30.254,"lo1":-89.0895,"lo2":-89.0444,"dy":0.0017,"dx":0.0017,"nx":28,"ny":28,"refTime":"2025-02-09T09:00:00:Z","depth":"4","parameterNumber":3,"parameterNumberName":"V-component_of_CURRENTS"},"data":[0,0,0,0,0,0,0,0,0,0,0,0,0,0,0,0,0,0,0,0,0,0,0,0,0,0,0,0,0,0,0,0,0,0,0,0,0,0,0,0,0,0,0,0,0,0,0,0,0,0,0,0,0,0,0,0,0,0,-0.014,-0.0141,0,-0.0193,-0.0194,-0.0194,-0.0235,-0.0235,-0.0235,-0.0236,-0.0316,-0.0318,-0.032,0,0,0,0,0,0,0,0,0,0,0,0,0,-0.0104,-0.0104,-0.014,-0.0141,-0.0141,-0.0193,-0.0194,-0.0195,-0.0234,-0.0235,-0.0235,-0.0236,-0.0316,-0.0318,-0.032,0,0,0,0,0,0,0,0,0,0,0,0,0,-0.0135,-0.0104,-0.014,-0.0167,-0.017,-0.0193,-0.0194,-0.0195,-0.0234,-0.0235,-0.0235,-0.0236,-0.0315,-0.0317,-0.032,-0.0327,0,0,-0.0329,-0.033,0,0,0,0,0,0,0,0,-0.0133,-0.0136,-0.0163,-0.0166,-0.0169,-0.0208,-0.0211,-0.024,-0.0234,-0.021,-0.0236,-0.0236,-0.0282,-0.0287,-0.0296,-0.0331,-0.0334,-0.0329,-0.033,-0.0332,-0.0332,0,0,0,0,0,0,0,-0.0131,-0.0134,-0.0161,-0.0163,-0.0167,-0.0187,-0.0192,-0.0216,-0.0243,-0.0212,-0.0215,-0.0221,-0.0284,-0.0293,-0.0298,-0.0335,-0.0329,-0.0331,-0.0333,-0.0334,-0.039,-0.039,0,0,0,0,0,0,-0.0121,-0.0132,-0.016,-0.0163,-0.0151,-0.0187,-0.0193,-0.0195,-0.0243,-0.025,-0.022,-0.0222,-0.0288,-0.0295,-0.0301,-0.0312,-0.0332,-0.0334,-0.0336,-0.039,-0.039,-0.039,0,0,0,0,0,0,-0.012,-0.0123,-0.0158,-0.0149,-0.0154,-0.0187,-0.0189,-0.0196,-0.0209,-0.0248,-0.0256,-0.0228,-0.0289,-0.0298,-0.0323,-0.0316,-0.0335,-0.0338,-0.039,-0.039,-0.039,-0.0334,0,0,0,0,0,0,-0.0119,-0.0122,-0.0122,-0.0148,-0.0155,-0.0167,-0.0189,-0.0196,-0.0211,-0.0215,-0.0257,-0.0265,-0.029,-0.0319,-0.0326,-0.032,-0.034,-0.0391,-0.039,-0.039,-0.0336,-0.0332,-0.0329,0,0,0,0,0,-0.0117,-0.0111,-0.0121,-0.0125,-0.0152,-0.0167,-0.0172,-0.0198,-0.0211,-0.0213,-0.0243,-0.0264,-0.0322,-0.0321,-0.033,-0.0324,-0.0391,-0.039,-0.039,-0.0338,-0.0333,-0.0329,0,0,0,0,0,0,-0.0095,-0.0115,-0.0127,-0.0127,-0.0145,-0.0174,-0.0177,-0.0196,-0.0221,-0.0225,-0.0264,-0.0273,-0.0294,-0.0317,-0.0315,-0.034,-0.0359,-0.0361,-0.0317,-0.0313,-0.0309,-0.0289,-0.0342,0,0,0,0,0,-0.0088,-0.009,-0.0113,-0.0114,-0.012,-0.0149,-0.0159,-0.0175,-0.02,-0.0212,-0.0241,-0.0272,-0.0298,-0.0311,-0.0338,-0.0351,-0.0373,-0.0353,-0.0349,-0.0346,-0.0336,-0.0361,-0.0358,-0.0389,-0.0389,-0.0389,0,0,-0.008,-0.0091,-0.0092,-0.0109,-0.0125,-0.0124,-0.0156,-0.0166,-0.0167,-0.0216,-0.0228,-0.0262,-0.0299,-0.0314,-0.0325,-0.0333,-0.035,-0.0345,-0.0342,-0.0334,-0.036,-0.0357,-0.0355,-0.0388,-0.0388,-0.0389,0,0,-0.0058,-0.0072,-0.0064,-0.0074,-0.0093,-0.0108,-0.0109,-0.0136,-0.015,-0.0167,-0.0201,-0.0227,-0.0267,-0.0288,-0.0305,-0.0296,-0.0331,-0.0309,-0.0271,-0.0295,-0.0293,-0.0291,-0.0318,-0.0319,-0.0304,-0.0304,-0.0304,0,-0.0046,-0.0039,-0.0064,-0.0058,-0.0059,-0.0096,-0.0084,-0.0102,-0.0134,-0.0139,-0.0163,-0.0217,-0.0252,-0.0265,-0.0265,-0.0286,-0.0308,-0.0283,-0.0289,-0.0288,-0.0286,-0.0315,-0.0316,-0.0301,-0.0301,-0.0302,-0.0302,0,-0.0018,-0.0013,-0.0008,-0.0009,-0.0014,-0.0011,-0.0034,-0.0042,-0.0065,-0.0086,-0.0109,-0.0159,-0.0188,-0.0207,-0.0235,-0.0242,-0.0263,-0.0282,-0.0297,-0.028,-0.0311,-0.0314,-0.0297,-0.0298,-0.0299,-0.03,0,0,0.0011,0.0013,0.0015,0.0028,0.0013,0.0016,0.0018,0.0011,0.0018,-0.0026,-0.0023,-0.0077,-0.0108,-0.0129,-0.017,-0.0194,-0.0212,-0.023,-0.0233,-0.025,-0.0269,-0.0274,-0.0278,-0.0233,-0.0233,-0.0233,-0.0295,0,0.0042,0.0071,0.0061,0.0092,0.0107,0.0084,0.0093,0.0081,0.0059,0.005,-0.0004,-0.0022,-0.0077,-0.0091,-0.0124,-0.019,-0.0216,-0.0194,-0.0289,-0.0292,-0.0292,-0.0279,-0.0234,-0.0297,-0.0298,-0.0298,-0.0299,0,0.0074,0.0091,0.0127,0.0152,0.0158,0.0169,0.0182,0.0184,0.016,0.014,0.0107,0.0064,0.0019,-0.0029,-0.0128,-0.0112,-0.0182,-0.0236,-0.024,-0.0263,-0.0301,-0.0319,-0.0304,-0.0304,-0.0303,-0.0303,-0.0303,0,0.0111,0.014,0.0173,0.0179,0.0197,0.0213,0.0221,0.0211,0.0225,0.0197,0.02,0.0133,0.0103,0.0011,-0.0109,-0.0117,-0.0219,-0.0246,-0.0315,-0.0317,-0.032,-0.0321,-0.0308,-0.0308,-0.0308,-0.0307,-0.0307,0,0.0148,0.0176,0.0195,0.0213,0.0261,0.0256,0.0296,0.0293,0.0295,0.0318,0.0249,0.0247,0.0112,0.0036,-0.008,-0.0205,-0.0201,-0.0302,-0.0329,-0.0296,-0.0294,-0.0322,-0.0323,-0.031,-0.0309,-0.0309,-0.0308,0,0.0177,0.0188,0.0231,0.0262,0.0278,0.031,0.0351,0.0378,0.0371,0.04,0.0398,0.0333,0.0232,0.0093,-0.0059,-0.0159,-0.0282,-0.0328,-0.0278,-0.0303,-0.0372,-0.0369,-0.0405,-0.0406,-0.0406,-0.0407,-0.0407,0,0.0192,0.0216,0.0268,0.0299,0.0315,0.036,0.0395,0.041,0.0444,0.0453,0.0474,0.0398,0.0333,0.0126,-0.0039,-0.0252,-0.0289,-0.0357,-0.0368,-0.0357,-0.038,-0.0377,-0.0373,-0.0408,-0.0408,-0.0408,-0.0408,0,0.0221,0.0236,0.0271,0.0335,0.0381,0.0438,0.049,0.0525,0.0548,0.0549,0.0547,0.0441,0.0326,0.0145,-0.0022,-0.018,-0.0314,-0.0363,-0.0363,-0.0374,-0.0361,-0.0382,-0.0379,-0.041,-0.0409,-0.0409,-0.0409,0,0.0238,0.0265,0.0309,0.0367,0.0431,0.0496,0.0523,0.0567,0.06,0.0617,0.0612,0.0485,0.041,0.0183,0.0028,-0.0127,-0.0173,-0.0231,-0.024,-0.024,-0.0182,-0.0141,-0.0136,0,0,0,0,0,0.0251,0.028,0.0337,0.0402,0.0468,0.0504,0.058,0.0602,0.0634,0.0648,0.0636,0.0532,0.0314,0.0218,0.0066,-0.0006,-0.0218,-0.0193,-0.0294,-0.0419,-0.0417,-0.0379,0,0,0,0,0,0,0.0257,0.0306,0.0334,0.0418,0.0466,0.054,0.059,0.0616,0.0627,0.0639,0.0533,0.0481,0.0271,0.0402,0.0059,0.001,-0.0077,-0.0295,-0.0298,-0.042,-0.0418,-0.0417,-0.0377,0,0,0,0,0]}]]